Olathe New Century, KS

1:35 AM CDT on April 30, 2017 (GMT -0500)
New Century Aircenter

Weather History for KIXD - October, 2013

Change the Weather History Date:

Sunday, October 6, 2013

  Actual Average Record
Temperature  
Mean Temperature 52 °F -  
Max Temperature 61 °F 69 °F 86 °F (1997)
Min Temperature 43 °F 47 °F 30 °F (2000)
Degree Days  
Heating Degree Days 14    
Growing Degree Days 2 (Base 50)    
Moisture  
Dew Point 38 °F    
Average Humidity 63    
Maximum Humidity 80    
Minimum Humidity 47    
Precipitation  
Precipitation 0.00 in - - ()
Sea Level Pressure  
Sea Level Pressure 29.93 in    
Wind  
Wind Speed 13 mph (WNW)    
Max Wind Speed 22 mph    
Max Gust Speed 28 mph    
Visibility 10 miles    
Events      
Averages and records for this station are not official NWS values.
T = Trace of Precipitation, MM = Missing Value Source: NWS Daily Summary

Daily Weather History Graph

Daily Weather History Graph

Search for Another Location

Airport or City:

Trip Planner

Search our weather history database for the weather conditions in past years. The results will help you decide how hot, cold, wet, or windy it might be!

Date:

Astronomy

Oct. 06, 2013 Rise Set
Actual Time 7:20 AM CDT 6:54 PM CDT
Civil Twilight 6:53 AM CDT 7:20 PM CDT
Nautical Twilight 6:22 AM CDT 7:51 PM CDT
Astronomical Twilight 5:51 AM CDT 8:22 PM CDT
Moon 9:04 AM CDT (10/6) 7:55 PM CDT (10/6)
Length of Visible Light 12h 26m
Length of Day
11h 33m
Waxing Crescent, 3% of the Moon is Illuminated
Oct 6
Waxing Crescent
Oct 11
First Quarter
Oct 18
Full
Oct 26
Last Quarter
Nov 3
New

Hourly Weather History & Observations

Time (CDT) Temp. Windchill Dew Point Humidity Pressure Visibility Wind Dir Wind Speed Gust Speed Precip Events Conditions
12:53 AM 48.0 °F - 33.1 °F 56% 29.92 in 10.0 mi West 10.4 mph - N/A   Clear
1:53 AM 46.0 °F 39.9 °F 32.0 °F 58% 29.92 in 10.0 mi West 13.8 mph 21.9 mph N/A   Clear
2:53 AM 45.0 °F 39.7 °F 33.1 °F 63% 29.91 in 10.0 mi WSW 10.4 mph - N/A   Clear
3:53 AM 43.0 °F 37.2 °F 34.0 °F 71% 29.88 in 10.0 mi SW 10.4 mph - N/A   Clear
4:53 AM 43.0 °F 37.7 °F 34.0 °F 71% 29.88 in 10.0 mi WSW 9.2 mph - N/A   Clear
5:53 AM 43.0 °F 38.8 °F 35.1 °F 74% 29.88 in 10.0 mi West 6.9 mph - N/A   Scattered Clouds
6:53 AM 46.0 °F 39.0 °F 35.1 °F 66% 29.90 in 10.0 mi West 17.3 mph 21.9 mph N/A   Overcast
7:53 AM 46.0 °F 39.6 °F 36.0 °F 68% 29.91 in 10.0 mi West 15.0 mph 21.9 mph N/A   Overcast
8:37 AM 46.4 °F 40.7 °F 37.4 °F 71% 29.91 in 10.0 mi West 12.7 mph - N/A   Mostly Cloudy
8:53 AM 46.9 °F - 37.0 °F 68% 29.92 in 10.0 mi West 13.8 mph - N/A   Mostly Cloudy
9:07 AM 48.2 °F - 37.4 °F 66% 29.91 in 10.0 mi West 16.1 mph 20.7 mph N/A   Partly Cloudy
9:27 AM 48.2 °F - 37.4 °F 66% 29.92 in 10.0 mi West 18.4 mph 26.5 mph N/A   Mostly Cloudy
9:53 AM 50.0 °F - 37.9 °F 63% 29.93 in 10.0 mi WNW 18.4 mph 23.0 mph N/A   Mostly Cloudy
10:49 AM 51.8 °F - 37.4 °F 58% 29.95 in 10.0 mi WNW 17.3 mph 21.9 mph N/A   Overcast
10:53 AM 51.1 °F - 37.9 °F 61% 29.95 in 10.0 mi West 16.1 mph - N/A   Overcast
11:53 AM 52.0 °F - 37.9 °F 59% 29.95 in 10.0 mi WNW 16.1 mph 24.2 mph N/A   Overcast
12:53 PM 54.0 °F - 39.0 °F 57% 29.95 in 10.0 mi WNW 15.0 mph - N/A   Mostly Cloudy
1:53 PM 59.0 °F - 39.9 °F 49% 29.93 in 10.0 mi WNW 11.5 mph - N/A   Mostly Cloudy
2:53 PM 59.0 °F - 39.9 °F 49% 29.91 in 10.0 mi West 10.4 mph 21.9 mph N/A   Mostly Cloudy
3:53 PM 60.1 °F - 39.9 °F 47% 29.90 in 10.0 mi West 19.6 mph - N/A   Scattered Clouds
4:53 PM 60.1 °F - 42.1 °F 51% 29.92 in 10.0 mi West 21.9 mph 27.6 mph N/A   Overcast
5:53 PM 57.9 °F - 42.1 °F 56% 29.92 in 10.0 mi West 13.8 mph - N/A   Overcast
6:53 PM 57.9 °F - 42.1 °F 56% 29.95 in 10.0 mi NW 20.7 mph 27.6 mph N/A   Overcast
7:53 PM 55.9 °F - 42.1 °F 60% 29.98 in 10.0 mi NW 12.7 mph 23.0 mph N/A   Overcast
8:53 PM 54.0 °F - 42.1 °F 64% 29.99 in 10.0 mi NNW 10.4 mph - N/A   Overcast
9:53 PM 52.0 °F - 43.0 °F 71% 30.01 in 10.0 mi North 9.2 mph - N/A   Mostly Cloudy
10:53 PM 48.9 °F - 42.1 °F 77% 30.03 in 10.0 mi NW 5.8 mph - N/A   Clear
11:53 PM 48.0 °F - 42.1 °F 80% 30.02 in 10.0 mi Calm Calm - N/A   Clear